CZ-6A DEB, 56658

Orbit data source: Space-Track

CZ-6A DEB, 56658 is space debris in SSO originally from a launch on Fri, 11 Nov 2022 UTC launched from the Taiyaun Space Center, China (TSC). Debris objects in space refer to the collection of defunct objects orbiting the Earth. Examples of debris include non-operational satellites, rocket bodies, and fragments generated from explosions, collisions, or faulty payload assembly.

Loading next visibility...
Identifier
56658, 2022-151AGJ
Orbit
SSO
Country
Flag of CNCN / PRC
Related business
Manufacturer
SAST
Mission
Spacecraft
Bus & Motor
Unknown
Mass
Unknown
Launch date (UTC)
2022-11-11 (3 years ago)
Launch vehicle
Unknown
Launch site
Taiyaun Space Center, China (TSC)
Object type
Payload
Rocket body
Debris
Shape & HBR
Unknown shape, 0.1 m
Radar Cross Section
Small (<0.1 m²)

Expand to show TLE details & history
Last TLE update: 1 day ago

TLE from 1 day ago
0 CZ-6A DEB
1 56658U 22151AGJ 25348.65205147  .00000435  00000-0  34659-3 0  9995
2 56658  98.8496 310.6986 0127023 215.8207 143.4386 13.92557109134244
Epoch: 2025-12-14T15:38Z
TLE epoch observation values (Epoch: 2025-12-14T15:38:57.247Z)
Latitude
-0.00005°
Longitude
-7.60182°
Altitude
997.439 km
Speed
7.315 km/s
True Right ascension
20h 42m 47s
True Declination
0° 00' 00"
Sunlit
Object was in daylight at epoch
Visualization orbit readout
Latitude
Unknown
Longitude
Unknown
Altitude
Unknown
Speed
Unknown
Apparent Right ascension
Unknown
Apparent Declination
Unknown
Sunlit
N/A
Visualization observer readout
Local Sidereal Time
22:49:13
Azimuth
Unknown
Elevation
Unknown
Doppler factor
Unknown
Orbital elements
Apogee altitude
1,009.548 km
Perigee altitude
824.221 km
Semi-major axis
7,295.022 km
Eccentricity
0.0127
Inclination
98.8496°
RAAN
310.6986°
Arg. of periapsis
215.8207°
True anomaly
144.29471°
Mean anomaly
143.4386°
Eccentric anomaly
143.86774°
Mean motion
3.4834 °/min
Orbital period
103.35 mins
BSTAR
0.00034659
Loading maneuver chart data...
Computing Atmospheric mass density...

Documentation

Showing up to 5 results
|